Arctic Village, AK

2:15 AM AKST on February 22, 2017 (GMT -0900)
Arctic Village

Weather History for PARC - March, 2014

Change the Weather History Date:

Sunday, March 9, 2014

  Actual Average Record
Temperature  
Mean Temperature -16 °F -  
Max Temperature -5 °F 7 °F 23 °F (1993)
Min Temperature -29 °F -25 °F -50 °F (1989)
Degree Days  
Heating Degree Days 81    
Moisture  
Dew Point -23 °F    
Average Humidity 61    
Maximum Humidity 100    
Minimum Humidity 38    
Precipitation  
Precipitation 0.00 in - - ()
Sea Level Pressure  
Sea Level Pressure 29.57 in    
Wind  
Wind Speed 1 mph (ENE)    
Max Wind Speed 6 mph    
Max Gust Speed -    
Visibility 10 miles    
Events      
Averages and records for this station are not official NWS values.
T = Trace of Precipitation, MM = Missing Value Source: NWS Daily Summary

Daily Weather History Graph

Daily Weather History Graph

Search for Another Location

Airport or City:

Trip Planner

Search our weather history database for the weather conditions in past years. The results will help you decide how hot, cold, wet, or windy it might be!

Date:

Astronomy

Mar. 09, 2014 Rise Set
Actual Time 8:27 AM AKDT 7:19 PM AKDT
Civil Twilight 7:31 AM AKDT 8:15 PM AKDT
Nautical Twilight 6:26 AM AKDT 9:21 PM AKDT
Astronomical Twilight 5:13 AM AKDT 10:35 PM AKDT
Moon 10:54 AM AKDT (3/9) 6:27 AM AKDT (3/9)
Length of Visible Light 12h 43m
Length of Day
10h 52m
Waxing Gibbous, 62% of the Moon is Illuminated
Mar 9
Waxing Gibbous
Mar 16
Full
Mar 23
Last Quarter
Mar 30
New
Apr 7
First Quarter

Hourly Weather History & Observations

Time (AKDT) Temp. Windchill Dew Point Humidity Pressure Visibility Wind Dir Wind Speed Gust Speed Precip Events Conditions
12:16 AM -18.4 °F - -27.4 °F 63% 29.56 in 10.0 mi Calm Calm - N/A   Clear
12:36 AM -18.4 °F - -18.4 °F 100% 29.56 in 10.0 mi Calm Calm - N/A   Clear
12:56 AM -20.2 °F - - N/A% 29.56 in 10.0 mi Calm Calm - N/A   Clear
1:16 AM -20.2 °F - - N/A% 29.56 in 10.0 mi Calm Calm - N/A   Clear
1:36 AM -20.2 °F -35.5 °F -20.2 °F 100% 29.56 in 10.0 mi East 5.8 mph - N/A   Clear
1:56 AM -18.4 °F - - N/A% 29.56 in 10.0 mi Calm Calm - N/A   Scattered Clouds
3:16 AM -22.0 °F - - N/A% 29.56 in 10.0 mi Calm Calm - N/A   Scattered Clouds
4:36 AM -18.4 °F - - N/A% 29.55 in 10.0 mi Calm Calm - N/A   Clear
4:56 AM -20.2 °F - - N/A% 29.55 in 10.0 mi Calm Calm - N/A   Clear
5:16 AM -23.8 °F - - N/A% 29.56 in 10.0 mi Calm Calm - N/A   Clear
5:36 AM -20.2 °F - - N/A% 29.56 in 10.0 mi Calm Calm - N/A   Clear
5:56 AM -27.4 °F - - N/A% 29.55 in 10.0 mi Calm Calm - N/A   Clear
6:16 AM -22.0 °F - - N/A% 29.55 in 10.0 mi Calm Calm - N/A   Scattered Clouds
6:36 AM -25.6 °F - - N/A% 29.56 in 10.0 mi Calm Calm - N/A   Mostly Cloudy
6:56 AM -25.6 °F - - N/A% 29.56 in 10.0 mi Calm Calm - N/A   Partly Cloudy
7:16 AM -22.0 °F - - N/A% 29.55 in 10.0 mi Calm Calm - N/A   Scattered Clouds
7:36 AM -23.8 °F - - N/A% 29.55 in 10.0 mi Calm Calm - N/A   Scattered Clouds
7:56 AM -20.2 °F -33.5 °F - N/A% 29.56 in 10.0 mi ENE 4.6 mph - N/A   Partly Cloudy
8:16 AM -20.2 °F - - N/A% 29.56 in 9.0 mi Calm Calm - N/A   Scattered Clouds
8:36 AM -27.4 °F -39.2 °F - N/A% 29.56 in 9.0 mi NNE 3.5 mph - N/A   Overcast
8:56 AM -23.8 °F -37.7 °F - N/A% 29.56 in 10.0 mi ENE 4.6 mph - N/A   Overcast
9:16 AM -22.0 °F -37.7 °F - N/A% 29.56 in 10.0 mi ENE 5.8 mph - N/A   Overcast
9:36 AM -25.6 °F - - N/A% 29.56 in 10.0 mi Calm Calm - N/A   Overcast
9:56 AM -23.8 °F - - N/A% 29.56 in 10.0 mi Calm Calm - N/A   Scattered Clouds
10:16 AM -25.6 °F - - N/A% 29.56 in 10.0 mi Calm Calm - N/A   Scattered Clouds
10:36 AM -20.2 °F - - N/A% 29.57 in 8.0 mi Calm Calm - N/A   Overcast
10:56 AM -22.0 °F - - N/A% 29.57 in 3.0 mi Calm Calm - N/A   Overcast
11:16 AM -18.4 °F - - N/A% 29.57 in 5.0 mi Calm Calm - N/A   Overcast
11:36 AM -18.4 °F - - N/A% 29.56 in 5.0 mi Calm Calm - N/A   Scattered Clouds
11:56 AM -16.6 °F - - N/A% 29.57 in 6.0 mi Calm Calm - N/A   Mostly Cloudy
12:16 PM -16.6 °F - - N/A% 29.57 in 8.0 mi Calm Calm - N/A   Mostly Cloudy
12:36 PM -14.8 °F - - N/A% 29.57 in 9.0 mi Calm Calm - N/A   Clear
12:56 PM -14.8 °F -24.8 °F -29.2 °F 48% 29.56 in 9.0 mi ENE 3.5 mph - N/A   Clear
1:16 PM -11.2 °F -20.6 °F -25.6 °F 49% 29.57 in 8.0 mi ENE 3.5 mph - N/A   Clear
1:36 PM -11.2 °F - -27.4 °F 45% 29.57 in 10.0 mi Calm Calm - N/A   Clear
1:56 PM -9.4 °F -18.6 °F -20.2 °F 59% 29.57 in 10.0 mi ENE 3.5 mph - N/A   Clear
2:16 PM -9.4 °F -22.7 °F -25.6 °F 45% 29.57 in 10.0 mi ENE 5.8 mph - N/A   Clear
2:36 PM -9.4 °F - -22.0 °F 54% 29.57 in 10.0 mi Calm Calm - N/A   Clear
2:56 PM -9.4 °F - -23.8 °F 49% 29.57 in 10.0 mi Calm Calm - N/A   Clear
3:16 PM -7.6 °F - -20.2 °F 54% 29.57 in 10.0 mi Calm Calm - N/A   Clear
3:36 PM -7.6 °F - -23.8 °F 45% 29.57 in 10.0 mi Calm Calm - N/A   Clear
3:56 PM -7.6 °F -16.5 °F -18.4 °F 59% 29.57 in 10.0 mi East 3.5 mph - N/A   Clear
4:16 PM -5.8 °F -14.5 °F -20.2 °F 50% 29.56 in 10.0 mi NE 3.5 mph - N/A   Clear
4:36 PM -5.8 °F - -20.2 °F 50% 29.57 in 10.0 mi Calm Calm - N/A   Clear
4:56 PM -5.8 °F - -18.4 °F 55% 29.57 in 10.0 mi Calm Calm - N/A   Clear
5:16 PM -5.8 °F -14.5 °F -25.6 °F 38% 29.57 in 10.0 mi East 3.5 mph - N/A   Clear
5:36 PM -5.8 °F -16.7 °F -16.6 °F 60% 29.56 in 10.0 mi East 4.6 mph - N/A   Clear
5:56 PM -7.6 °F -18.8 °F -25.6 °F 41% 29.56 in 10.0 mi East 4.6 mph - N/A   Clear
6:16 PM -7.6 °F -18.8 °F -20.2 °F 54% 29.57 in 10.0 mi East 4.6 mph - N/A   Clear
6:36 PM -9.4 °F - -22.0 °F 54% 29.57 in 10.0 mi Calm Calm - N/A   Clear
6:56 PM -9.4 °F - -23.8 °F 49% 29.57 in 10.0 mi Calm Calm - N/A   Clear
7:16 PM -9.4 °F -18.6 °F -25.6 °F 45% 29.57 in 10.0 mi NNE 3.5 mph - N/A   Clear
7:36 PM -13.0 °F - -25.6 °F 53% 29.57 in 10.0 mi Calm Calm - N/A   Clear
7:56 PM -14.8 °F - - N/A% 29.57 in 10.0 mi Calm Calm - N/A   Clear
8:16 PM -14.8 °F - -22.0 °F 70% 29.57 in 10.0 mi Calm Calm - N/A   Clear
8:36 PM -18.4 °F - - N/A% 29.58 in 10.0 mi Calm Calm - N/A   Clear
8:56 PM -18.4 °F - -27.4 °F 63% 29.58 in 10.0 mi Calm Calm - N/A   Clear
9:16 PM -18.4 °F -28.9 °F -25.6 °F 70% 29.59 in 10.0 mi NNE 3.5 mph - N/A   Clear
9:36 PM -20.2 °F - - N/A% 29.59 in 10.0 mi Calm Calm - N/A   Clear
9:56 PM -20.2 °F -30.9 °F -20.2 °F 100% 29.59 in 10.0 mi NE 3.5 mph - N/A   Clear
10:16 PM -23.8 °F - - N/A% 29.59 in 10.0 mi Calm Calm - N/A   Clear
10:36 PM -23.8 °F - - N/A% 29.59 in 10.0 mi Calm Calm - N/A   Clear
10:56 PM -23.8 °F - -23.8 °F 100% 29.59 in 10.0 mi Calm Calm - N/A   Clear
11:16 PM -25.6 °F - - N/A% 29.60 in 10.0 mi Calm Calm - N/A   Clear
11:36 PM -23.8 °F - -23.8 °F 100% 29.60 in 10.0 mi Calm Calm - N/A   Clear
11:56 PM -25.6 °F - - N/A% 29.60 in 10.0 mi Calm Calm - N/A   Clear
12:16 AM -27.4 °F - - N/A% 29.60 in 10.0 mi Calm Calm - N/A   Clear
12:36 AM -25.6 °F - - N/A% 29.60 in 10.0 mi Calm Calm - N/A   Clear
12:56 AM -29.2 °F - - N/A% 29.60 in 5.0 mi Calm Calm - N/A   Clear